QPF
0.06 0.03 0.00 0.00 0.00 0.00 0.00 0.00 0.00 0.00 0.00 0.00 0.00 0.00 0.00 0.00 0.00 0.00 0.00 0.00 0.00 0.00 0.01 0.01 0.01 0.00 0.00 0.00 0.00 0.01 0.01 0.01 0.01 0.01 0.02 0.02 0.02 0.03 0.02 0.01 0.00 0.00 0.00
0.09 0.06 0.02 0.01 0.00 0.00 0.00 0.00 0.00 0.00 0.00 0.00 0.00 0.00 0.00 0.00 0.00 0.00 0.00 0.00 0.00 0.00 0.00 0.01 0.01 0.01 0.00 0.00 0.00 0.00 0.01 0.01 0.01 0.01 0.01 0.02 0.02 0.02 0.02 0.02 0.01 0.01 0.01
0.11 0.09 0.04 0.02 0.01 0.01 0.01 0.00 0.00 0.00 0.00 0.00 0.00 0.00 0.00 0.00 0.00 0.00 0.00 0.00 0.00 0.00 0.00 0.00 0.01 0.01 0.01 0.00 0.00 0.01 0.01 0.01 0.01 0.01 0.02 0.02 0.02 0.03 0.03 0.03 0.03 0.04 0.05
0.11 0.11 0.07 0.04 0.04 0.04 0.03 0.02 0.01 0.00 0.00 0.00 0.00 0.00 0.00 0.00 0.00 0.00 0.00 0.00 0.00 0.00 0.00 0.00 0.00 0.01 0.01 0.01 0.01 0.01 0.01 0.01 0.01 0.01 0.02 0.02 0.02 0.03 0.04 0.04 0.05 0.08 0.10
0.12 0.14 0.12 0.12 0.13 0.11 0.06 0.03 0.01 0.00 0.00 0.00 0.00 0.00 0.00 0.00 0.00 0.00 0.00 0.00 0.00 0.00 0.00 0.00 0.00 0.00 0.00 0.01 0.01 0.00 0.00 0.01 0.00 0.01 0.01 0.01 0.02 0.03 0.03 0.04 0.05 0.07 0.09
0.18 0.19 0.17 0.19 0.21 0.17 0.12 0.07 0.05 0.03 0.01 0.01 0.00 0.00 0.00 0.00 0.00 0.00 0.00 0.00 0.00 0.00 0.00 0.00 0.00 0.00 0.00 0.00 0.00 0.00 0.00 0.01 0.00 0.00 0.01 0.01 0.01 0.01 0.02 0.03 0.03 0.05 0.07
0.24 0.26 0.24 0.24 0.24 0.22 0.21 0.19 0.13 0.08 0.05 0.02 0.02 0.01 0.01 0.00 0.00 0.00 0.00 0.00 0.00 0.00 0.00 0.00 0.00 0.00 0.00 0.00 0.00 0.00 0.00 0.01 0.01 0.00 0.00 0.00 0.00 0.01 0.01 0.01 0.02 0.03 0.04
0.24 0.24 0.25 0.26 0.27 0.25 0.27 0.25 0.21 0.16 0.09 0.05 0.06 0.08 0.05 0.03 0.01 0.00 0.00 0.00 0.00 0.00 0.00 0.00 0.00 0.00 0.00 0.00 0.00 0.00 0.00 0.00 0.00 0.00 0.00 0.00 0.00 0.00 0.00 0.00 0.01 0.01 0.02
0.26 0.25 0.24 0.27 0.27 0.23 0.21 0.23 0.23 0.24 0.20 0.13 0.08 0.11 0.09 0.07 0.07 0.02 0.00 0.01 0.00 0.00 0.00 0.00 0.00 0.00 0.00 0.00 0.00 0.00 0.00 0.00 0.01 0.00 0.00 0.00 0.00 0.00 0.00 0.00 0.00 0.00 0.01
0.21 0.24 0.26 0.28 0.27 0.24 0.22 0.22 0.22 0.25 0.28 0.24 0.17 0.13 0.11 0.09 0.10 0.08 0.03 0.01 0.00 0.00 0.01 0.01 0.01 0.00 0.00 0.00 0.00 0.00 0.00 0.00 0.01 0.01 0.01 0.01 0.01 0.01 0.00 0.00 0.00 0.00 0.00
0.14 0.16 0.19 0.21 0.20 0.20 0.22 0.24 0.22 0.24 0.26 0.26 0.23 0.19 0.15 0.11 0.08 0.08 0.08 0.04 0.01 0.01 0.00 0.00 0.01 0.02 0.01 0.00 0.02 0.01 0.00 0.00 0.01 0.02 0.02 0.02 0.01 0.01 0.00 0.00 0.00 0.01 0.00
0.09 0.10 0.11 0.12 0.13 0.15 0.17 0.19 0.20 0.21 0.23 0.25 0.26 0.23 0.20 0.16 0.13 0.12 0.11 0.08 0.06 0.03 0.01 0.00 0.01 0.02 0.02 0.02 0.02 0.01 0.00 0.00 0.01 0.01 0.02 0.02 0.01 0.01 0.01 0.01 0.01 0.01 0.01
0.06 0.07 0.07 0.08 0.09 0.12 0.12 0.12 0.14 0.15 0.17 0.20 0.24 0.26 0.26 0.22 0.18 0.16 0.14 0.12 0.09 0.04 0.01 0.01 0.00 0.01 0.01 0.02 0.02 0.02 0.00 0.00 0.00 0.01 0.01 0.01 0.01 0.01 0.01 0.01 0.02 0.02 0.02
0.05 0.06 0.06 0.07 0.08 0.09 0.10 0.10 0.10 0.12 0.13 0.15 0.17 0.18 0.20 0.20 0.19 0.16 0.14 0.14 0.13 0.10 0.06 0.03 0.01 0.00 0.01 0.01 0.01 0.01 0.01 0.00 0.00 0.01 0.01 0.01 0.01 0.01 0.01 0.01 0.02 0.02 0.02
0.04 0.04 0.05 0.05 0.06 0.07 0.07 0.07 0.08 0.08 0.10 0.12 0.14 0.15 0.15 0.16 0.16 0.15 0.13 0.12 0.11 0.11 0.09 0.06 0.03 0.02 0.01 0.00 0.01 0.00 0.01 0.01 0.01 0.01 0.01 0.00 0.00 0.01 0.01 0.01 0.01 0.01 0.01
0.03 0.03 0.03 0.04 0.04 0.05 0.06 0.07 0.07 0.06 0.07 0.09 0.11 0.15 0.16 0.18 0.17 0.15 0.13 0.12 0.11 0.09 0.08 0.07 0.04 0.02 0.01 0.00 0.00 0.00 0.01 0.01 0.01 0.00 0.00 0.01 0.01 0.01 0.01 0.01 0.01 0.01 0.01
0.03 0.02 0.03 0.03 0.03 0.03 0.04 0.05 0.07 0.07 0.06 0.06 0.05 0.07 0.08 0.10 0.13 0.13 0.12 0.11 0.10 0.09 0.08 0.07 0.04 0.03 0.02 0.01 0.01 0.00 0.01 0.01 0.01 0.00 0.00 0.01 0.01 0.01 0.01 0.01 0.01 0.01 0.00
0.02 0.03 0.03 0.03 0.03 0.04 0.05 0.05 0.06 0.06 0.06 0.06 0.05 0.04 0.03 0.04 0.05 0.06 0.08 0.08 0.07 0.06 0.07 0.07 0.06 0.04 0.02 0.01 0.01 0.00 0.00 0.01 0.01 0.01 0.00 0.00 0.01 0.00 0.01 0.01 0.01 0.00 0.00
0.02 0.03 0.03 0.03 0.04 0.05 0.06 0.07 0.07 0.07 0.07 0.07 0.07 0.07 0.05 0.05 0.06 0.06 0.07 0.07 0.06 0.05 0.06 0.06 0.04 0.02 0.02 0.01 0.01 0.01 0.01 0.02 0.01 0.01 0.01 0.01 0.01 0.01 0.01 0.01 0.01 0.01 0.01
0.03 0.03 0.03 0.03 0.04 0.05 0.06 0.08 0.09 0.10 0.10 0.10 0.09 0.08 0.06 0.06 0.08 0.09 0.09 0.09 0.07 0.05 0.04 0.04 0.03 0.02 0.02 0.01 0.02 0.03 0.03 0.05 0.04 0.03 0.02 0.02 0.01 0.01 0.01 0.01 0.01 0.01 0.02
0.01 0.02 0.01 0.01 0.02 0.03 0.04 0.06 0.07 0.08 0.11 0.13 0.12 0.10 0.09 0.09 0.08 0.08 0.09 0.09 0.07 0.05 0.04 0.03 0.02 0.02 0.02 0.02 0.03 0.04 0.04 0.04 0.03 0.04 0.05 0.03 0.04 0.03 0.02 0.01 0.02 0.02 0.02
0.00 0.00 0.01 0.01 0.01 0.01 0.03 0.05 0.05 0.05 0.08 0.12 0.15 0.14 0.12 0.13 0.11 0.08 0.06 0.06 0.06 0.05 0.05 0.03 0.02 0.02 0.02 0.01 0.02 0.03 0.03 0.04 0.02 0.02 0.03 0.02 0.01 0.01 0.01 0.01 0.01 0.01 0.01
0.00 0.00 0.00 0.00 0.01 0.01 0.02 0.03 0.04 0.04 0.06 0.07 0.10 0.14 0.15 0.13 0.15 0.15 0.08 0.05 0.03 0.03 0.03 0.03 0.02 0.03 0.02 0.01 0.01 0.02 0.03 0.05 0.02 0.01 0.02 0.01 0.01 0.01 0.01 0.00 0.00 0.00 0.00
0.00 0.00 0.00 0.00 0.00 0.01 0.02 0.02 0.02 0.03 0.04 0.05 0.07 0.11 0.14 0.15 0.15 0.14 0.09 0.09 0.05 0.02 0.02 0.01 0.02 0.02 0.01 0.01 0.02 0.02 0.02 0.01 0.01 0.01 0.01 0.01 0.01 0.01 0.01 0.00 0.00 0.00 0.00
0.00 0.00 0.00 0.00 0.00 0.00 0.01 0.01 0.01 0.01 0.02 0.03 0.05 0.08 0.10 0.10 0.12 0.13 0.13 0.11 0.08 0.03 0.02 0.02 0.02 0.01 0.01 0.01 0.01 0.01 0.01 0.01 0.01 0.01 0.01 0.01 0.01 0.01 0.00 0.00 0.00 0.00 0.00
0.00 0.00 0.00 0.00 0.00 0.00 0.01 0.01 0.01 0.01 0.01 0.02 0.03 0.05 0.08 0.08 0.09 0.09 0.11 0.12 0.11 0.04 0.01 0.01 0.01 0.00 0.00 0.01 0.01 0.01 0.02 0.02 0.01 0.01 0.01 0.01 0.01 0.01 0.01 0.01 0.00 0.00 0.00
MSLP
1014.97 1015.15 1015.31 1015.48 1015.64 1015.81 1015.97 1016.12 1016.25 1016.33 1016.35 1016.33 1016.27 1016.20 1016.16 1016.19 1016.32 1016.57 1016.91 1017.33 1017.78 1018.21 1018.56 1018.81 1018.95 1018.97 1018.92 1018.82 1018.72 1018.66 1018.65 1018.71 1018.82 1018.97 1019.14 1019.31 1019.46 1019.60 1019.71 1019.80 1019.88 1019.94 1019.98
1014.73 1014.88 1015.03 1015.20 1015.38 1015.57 1015.75 1015.93 1016.07 1016.15 1016.18 1016.15 1016.08 1016.01 1015.97 1016.00 1016.14 1016.39 1016.74 1017.16 1017.62 1018.06 1018.44 1018.72 1018.89 1018.96 1018.95 1018.90 1018.84 1018.79 1018.79 1018.84 1018.93 1019.05 1019.19 1019.33 1019.47 1019.61 1019.73 1019.84 1019.95 1020.03 1020.09
1014.55 1014.67 1014.82 1014.99 1015.19 1015.40 1015.62 1015.82 1015.98 1016.07 1016.11 1016.07 1016.00 1015.92 1015.87 1015.89 1016.00 1016.22 1016.53 1016.93 1017.35 1017.77 1018.15 1018.45 1018.66 1018.79 1018.85 1018.87 1018.88 1018.89 1018.92 1018.97 1019.05 1019.14 1019.24 1019.34 1019.45 1019.56 1019.67 1019.79 1019.91 1020.01 1020.10
1014.38 1014.48 1014.63 1014.82 1015.05 1015.30 1015.55 1015.78 1015.97 1016.09 1016.13 1016.11 1016.04 1015.95 1015.88 1015.87 1015.93 1016.09 1016.33 1016.65 1017.01 1017.37 1017.71 1018.01 1018.25 1018.44 1018.59 1018.71 1018.81 1018.91 1019.00 1019.08 1019.16 1019.23 1019.29 1019.35 1019.40 1019.47 1019.56 1019.67 1019.79 1019.91 1020.01
1014.16 1014.27 1014.43 1014.64 1014.91 1015.20 1015.50 1015.77 1016.00 1016.15 1016.23 1016.23 1016.17 1016.08 1016.00 1015.95 1015.95 1016.03 1016.18 1016.39 1016.63 1016.90 1017.18 1017.45 1017.71 1017.95 1018.19 1018.41 1018.63 1018.83 1019.01 1019.15 1019.26 1019.32 1019.35 1019.36 1019.37 1019.39 1019.44 1019.52 1019.63 1019.75 1019.87
1013.86 1013.97 1014.15 1014.40 1014.71 1015.05 1015.40 1015.73 1016.01 1016.21 1016.33 1016.37 1016.35 1016.28 1016.20 1016.12 1016.07 1016.07 1016.11 1016.19 1016.31 1016.46 1016.64 1016.86 1017.10 1017.38 1017.68 1018.01 1018.35 1018.66 1018.94 1019.16 1019.31 1019.39 1019.41 1019.39 1019.35 1019.33 1019.34 1019.39 1019.49 1019.61 1019.73
1013.47 1013.58 1013.79 1014.07 1014.42 1014.81 1015.22 1015.60 1015.93 1016.19 1016.38 1016.48 1016.51 1016.49 1016.43 1016.35 1016.27 1016.20 1016.14 1016.10 1016.09 1016.11 1016.19 1016.32 1016.53 1016.81 1017.16 1017.57 1018.00 1018.43 1018.81 1019.11 1019.32 1019.44 1019.47 1019.43 1019.38 1019.33 1019.31 1019.34 1019.41 1019.52 1019.64
1013.00 1013.12 1013.34 1013.65 1014.03 1014.46 1014.91 1015.34 1015.72 1016.05 1016.30 1016.48 1016.59 1016.64 1016.64 1016.60 1016.52 1016.41 1016.29 1016.15 1016.03 1015.93 1015.90 1015.94 1016.09 1016.35 1016.71 1017.16 1017.65 1018.15 1018.62 1019.00 1019.27 1019.44 1019.50 1019.48 1019.43 1019.37 1019.34 1019.36 1019.42 1019.52 1019.63
1012.53 1012.63 1012.85 1013.16 1013.56 1014.00 1014.47 1014.93 1015.36 1015.74 1016.07 1016.33 1016.54 1016.68 1016.77 1016.79 1016.76 1016.66 1016.51 1016.33 1016.13 1015.95 1015.81 1015.77 1015.84 1016.05 1016.39 1016.83 1017.35 1017.89 1018.40 1018.83 1019.16 1019.38 1019.48 1019.51 1019.48 1019.45 1019.43 1019.45 1019.51 1019.61 1019.72
1012.14 1012.21 1012.40 1012.69 1013.06 1013.49 1013.95 1014.41 1014.86 1015.29 1015.67 1016.01 1016.31 1016.56 1016.75 1016.88 1016.92 1016.89 1016.77 1016.59 1016.36 1016.13 1015.93 1015.82 1015.82 1015.95 1016.23 1016.63 1017.12 1017.65 1018.16 1018.62 1018.99 1019.25 1019.41 1019.48 1019.51 1019.51 1019.53 1019.58 1019.65 1019.75 1019.86
1011.91 1011.93 1012.06 1012.30 1012.61 1012.99 1013.41 1013.84 1014.28 1014.71 1015.14 1015.55 1015.93 1016.28 1016.58 1016.82 1016.97 1017.03 1016.98 1016.85 1016.65 1016.42 1016.20 1016.04 1015.97 1016.03 1016.23 1016.56 1016.98 1017.45 1017.93 1018.38 1018.75 1019.04 1019.25 1019.38 1019.46 1019.52 1019.59 1019.68 1019.78 1019.89 1020.00
1011.89 1011.84 1011.90 1012.06 1012.29 1012.58 1012.92 1013.30 1013.69 1014.11 1014.54 1014.98 1015.42 1015.86 1016.26 1016.60 1016.87 1017.04 1017.10 1017.05 1016.92 1016.73 1016.52 1016.35 1016.24 1016.24 1016.35 1016.58 1016.91 1017.30 1017.71 1018.11 1018.47 1018.77 1019.00 1019.18 1019.33 1019.45 1019.57 1019.70 1019.84 1019.97 1020.09
1012.09 1011.98 1011.95 1012.01 1012.14 1012.33 1012.57 1012.85 1013.18 1013.55 1013.95 1014.40 1014.87 1015.35 1015.82 1016.25 1016.62 1016.90 1017.07 1017.13 1017.09 1016.98 1016.82 1016.66 1016.54 1016.49 1016.53 1016.67 1016.89 1017.18 1017.50 1017.84 1018.16 1018.45 1018.70 1018.91 1019.11 1019.28 1019.46 1019.63 1019.79 1019.95 1020.07
1012.49 1012.31 1012.20 1012.16 1012.19 1012.26 1012.39 1012.58 1012.82 1013.11 1013.47 1013.88 1014.34 1014.83 1015.33 1015.82 1016.26 1016.62 1016.89 1017.05 1017.11 1017.09 1017.00 1016.89 1016.78 1016.71 1016.69 1016.75 1016.88 1017.07 1017.31 1017.57 1017.84 1018.11 1018.36 1018.60 1018.83 1019.05 1019.26 1019.46 1019.64 1019.80 1019.93
1013.01 1012.79 1012.62 1012.50 1012.42 1012.39 1012.42 1012.51 1012.65 1012.87 1013.15 1013.51 1013.92 1014.38 1014.87 1015.36 1015.82 1016.23 1016.56 1016.81 1016.96 1017.03 1017.02 1016.97 1016.89 1016.83 1016.79 1016.80 1016.87 1016.98 1017.15 1017.35 1017.57 1017.81 1018.05 1018.30 1018.54 1018.78 1019.01 1019.23 1019.42 1019.58 1019.70
1013.61 1013.36 1013.14 1012.95 1012.80 1012.70 1012.64 1012.64 1012.70 1012.83 1013.04 1013.32 1013.66 1014.06 1014.49 1014.94 1015.38 1015.79 1016.14 1016.43 1016.65 1016.79 1016.86 1016.87 1016.85 1016.82 1016.79 1016.79 1016.83 1016.90 1017.02 1017.17 1017.37 1017.58 1017.82 1018.07 1018.31 1018.56 1018.79 1019.01 1019.19 1019.34 1019.45
1014.19 1013.94 1013.70 1013.48 1013.28 1013.12 1013.01 1012.95 1012.94 1013.01 1013.14 1013.33 1013.59 1013.90 1014.24 1014.61 1014.98 1015.35 1015.68 1015.97 1016.22 1016.40 1016.53 1016.61 1016.65 1016.67 1016.68 1016.70 1016.75 1016.82 1016.93 1017.08 1017.26 1017.47 1017.71 1017.95 1018.20 1018.44 1018.67 1018.86 1019.03 1019.16 1019.24
1014.73 1014.49 1014.25 1014.02 1013.80 1013.62 1013.47 1013.37 1013.32 1013.33 1013.40 1013.52 1013.68 1013.89 1014.13 1014.39 1014.67 1014.96 1015.23 1015.49 1015.73 1015.93 1016.10 1016.23 1016.33 1016.41 1016.48 1016.56 1016.64 1016.75 1016.89 1017.06 1017.26 1017.48 1017.72 1017.97 1018.22 1018.46 1018.67 1018.85 1018.99 1019.10 1019.16
1015.21 1014.98 1014.75 1014.52 1014.31 1014.12 1013.96 1013.85 1013.78 1013.75 1013.76 1013.82 1013.90 1014.01 1014.14 1014.29 1014.47 1014.65 1014.84 1015.04 1015.24 1015.44 1015.62 1015.79 1015.95 1016.09 1016.23 1016.37 1016.52 1016.69 1016.88 1017.10 1017.34 1017.59 1017.86 1018.13 1018.38 1018.62 1018.82 1018.99 1019.11 1019.20 1019.24
1015.63 1015.42 1015.20 1014.98 1014.78 1014.59 1014.44 1014.32 1014.23 1014.19 1014.16 1014.16 1014.17 1014.20 1014.24 1014.29 1014.35 1014.44 1014.55 1014.68 1014.83 1015.00 1015.18 1015.37 1015.56 1015.77 1015.97 1016.18 1016.41 1016.65 1016.90 1017.18 1017.47 1017.77 1018.07 1018.37 1018.64 1018.88 1019.09 1019.26 1019.38 1019.45 1019.48
1016.03 1015.83 1015.62 1015.40 1015.20 1015.02 1014.87 1014.74 1014.65 1014.58 1014.53 1014.49 1014.45 1014.41 1014.38 1014.35 1014.33 1014.33 1014.36 1014.43 1014.53 1014.67 1014.83 1015.03 1015.25 1015.49 1015.75 1016.02 1016.31 1016.62 1016.94 1017.28 1017.63 1017.98 1018.32 1018.64 1018.94 1019.21 1019.43 1019.61 1019.74 1019.82 1019.86
1016.44 1016.23 1016.02 1015.80 1015.59 1015.40 1015.23 1015.10 1014.99 1014.90 1014.82 1014.75 1014.68 1014.60 1014.52 1014.44 1014.37 1014.32 1014.30 1014.32 1014.38 1014.48 1014.63 1014.83 1015.06 1015.32 1015.61 1015.92 1016.26 1016.62 1016.99 1017.38 1017.77 1018.16 1018.54 1018.90 1019.23 1019.53 1019.78 1019.98 1020.14 1020.24 1020.31
1016.88 1016.66 1016.43 1016.19 1015.95 1015.74 1015.54 1015.38 1015.24 1015.13 1015.03 1014.94 1014.85 1014.75 1014.65 1014.55 1014.46 1014.39 1014.34 1014.34 1014.38 1014.47 1014.60 1014.79 1015.02 1015.29 1015.59 1015.92 1016.28 1016.66 1017.06 1017.47 1017.89 1018.30 1018.71 1019.10 1019.46 1019.78 1020.07 1020.31 1020.50 1020.65 1020.74
1017.36 1017.12 1016.85 1016.58 1016.31 1016.05 1015.81 1015.61 1015.43 1015.29 1015.16 1015.05 1014.95 1014.86 1014.76 1014.67 1014.59 1014.53 1014.50 1014.49 1014.54 1014.62 1014.75 1014.93 1015.15 1015.41 1015.71 1016.03 1016.38 1016.76 1017.15 1017.56 1017.98 1018.39 1018.81 1019.21 1019.59 1019.95 1020.27 1020.55 1020.78 1020.97 1021.11
1017.86 1017.59 1017.29 1016.98 1016.66 1016.35 1016.07 1015.81 1015.59 1015.41 1015.26 1015.13 1015.03 1014.95 1014.87 1014.81 1014.76 1014.73 1014.73 1014.76 1014.82 1014.92 1015.06 1015.23 1015.44 1015.69 1015.96 1016.26 1016.58 1016.92 1017.29 1017.67 1018.06 1018.46 1018.86 1019.26 1019.65 1020.02 1020.37 1020.68 1020.96 1021.19 1021.37
1018.34 1018.06 1017.73 1017.38 1017.02 1016.67 1016.33 1016.02 1015.76 1015.54 1015.36 1015.22 1015.12 1015.05 1015.00 1014.97 1014.97 1014.99 1015.03 1015.10 1015.19 1015.32 1015.47 1015.65 1015.86 1016.08 1016.33 1016.59 1016.87 1017.16 1017.48 1017.81 1018.16 1018.52 1018.89 1019.28 1019.66 1020.04 1020.40 1020.74 1021.05 1021.32 1021.53
Thickness
5770 5771 5770 5768 5768 5768 5766 5764 5766 5768 5767 5768 5769 5770 5770 5768 5768 5766 5763 5758 5757 5757 5757 5757 5757 5756 5756 5755 5755 5755 5755 5754 5753 5752 5751 5750 5749 5748 5747 5746 5745 5745 5744
5766 5767 5768 5767 5767 5766 5765 5764 5765 5765 5765 5766 5767 5767 5767 5768 5767 5765 5763 5759 5757 5756 5755 5756 5756 5755 5755 5754 5754 5754 5753 5753 5752 5751 5749 5748 5747 5746 5745 5743 5742 5742 5741
5762 5762 5764 5765 5765 5763 5763 5762 5764 5762 5762 5763 5763 5764 5765 5764 5764 5765 5763 5761 5760 5756 5755 5754 5754 5754 5754 5753 5753 5752 5752 5751 5750 5749 5747 5746 5745 5743 5742 5741 5740 5739 5739
5759 5759 5759 5761 5761 5761 5760 5759 5760 5758 5759 5760 5762 5763 5763 5761 5761 5763 5762 5760 5759 5758 5755 5752 5752 5752 5752 5751 5751 5751 5750 5749 5748 5746 5745 5743 5742 5741 5739 5738 5737 5736 5735
5755 5755 5755 5756 5757 5756 5755 5756 5755 5756 5755 5756 5758 5759 5761 5761 5760 5759 5761 5761 5759 5756 5756 5751 5750 5749 5749 5749 5749 5748 5748 5747 5745 5744 5742 5741 5739 5738 5736 5735 5734 5733 5733
5750 5750 5750 5751 5751 5750 5749 5750 5750 5749 5751 5751 5753 5754 5756 5757 5757 5757 5758 5757 5757 5756 5755 5752 5750 5748 5746 5746 5745 5745 5744 5744 5742 5741 5739 5738 5736 5735 5733 5732 5731 5730 5729
5745 5745 5746 5746 5746 5745 5745 5745 5744 5742 5742 5746 5745 5745 5750 5752 5755 5754 5753 5754 5755 5754 5751 5750 5750 5749 5746 5742 5742 5741 5741 5740 5739 5737 5736 5734 5732 5731 5729 5728 5727 5726 5725
5741 5741 5742 5743 5742 5741 5740 5739 5738 5736 5736 5738 5737 5733 5733 5739 5743 5749 5749 5749 5751 5751 5749 5749 5748 5745 5745 5744 5740 5737 5736 5735 5734 5733 5732 5730 5728 5727 5725 5724 5722 5721 5720
5737 5737 5738 5739 5738 5736 5736 5735 5734 5731 5728 5730 5733 5730 5725 5725 5733 5741 5745 5745 5745 5747 5746 5745 5745 5744 5742 5741 5738 5733 5732 5730 5729 5728 5727 5725 5723 5722 5720 5719 5718 5716 5715
5733 5733 5733 5734 5733 5733 5732 5732 5731 5729 5725 5722 5723 5726 5728 5729 5723 5725 5733 5739 5741 5740 5740 5740 5739 5740 5738 5736 5733 5730 5727 5726 5725 5723 5722 5720 5719 5717 5715 5714 5712 5711 5709
5725 5727 5728 5728 5729 5730 5730 5729 5728 5726 5725 5721 5718 5718 5718 5718 5720 5718 5718 5725 5730 5733 5735 5735 5735 5733 5733 5731 5729 5727 5723 5721 5720 5718 5717 5715 5714 5712 5710 5708 5707 5705 5704
5715 5718 5721 5723 5724 5725 5725 5725 5725 5723 5722 5720 5717 5715 5713 5712 5712 5712 5710 5713 5716 5723 5726 5727 5727 5727 5726 5725 5723 5722 5719 5716 5715 5713 5712 5710 5708 5706 5705 5703 5702 5700 5698
5703 5708 5712 5714 5717 5719 5720 5720 5720 5720 5719 5717 5715 5713 5712 5711 5711 5708 5705 5705 5706 5711 5715 5717 5719 5719 5719 5719 5719 5716 5714 5711 5710 5708 5706 5704 5702 5701 5699 5698 5696 5695 5693
5693 5698 5702 5705 5708 5711 5712 5714 5714 5714 5715 5714 5712 5710 5708 5708 5707 5705 5703 5700 5697 5700 5703 5708 5711 5711 5712 5712 5713 5710 5710 5707 5704 5702 5700 5698 5696 5695 5693 5692 5691 5689 5688
5684 5688 5691 5695 5698 5701 5704 5705 5705 5706 5707 5708 5708 5707 5705 5704 5703 5701 5700 5699 5694 5691 5693 5698 5700 5703 5703 5704 5704 5704 5705 5701 5699 5696 5694 5692 5690 5689 5687 5686 5685 5684 5683
5674 5678 5681 5684 5687 5690 5693 5694 5696 5698 5699 5699 5699 5699 5698 5697 5696 5695 5694 5693 5692 5690 5688 5692 5693 5695 5696 5697 5696 5697 5697 5694 5691 5689 5688 5686 5684 5683 5682 5681 5680 5679 5678
5664 5668 5671 5674 5677 5679 5682 5684 5686 5688 5689 5690 5690 5689 5689 5689 5688 5688 5687 5687 5686 5685 5682 5684 5686 5687 5688 5689 5689 5690 5690 5688 5686 5682 5681 5680 5679 5678 5677 5676 5675 5674 5674
5656 5659 5662 5664 5667 5669 5672 5674 5675 5677 5678 5679 5679 5679 5679 5680 5680 5680 5680 5679 5679 5680 5678 5675 5677 5678 5680 5682 5683 5683 5683 5682 5681 5676 5675 5674 5673 5672 5672 5671 5671 5670 5669
5648 5651 5654 5655 5657 5659 5662 5663 5665 5666 5667 5669 5669 5670 5670 5671 5671 5672 5672 5672 5672 5673 5672 5671 5670 5672 5673 5674 5675 5675 5676 5675 5673 5670 5668 5668 5667 5666 5666 5666 5665 5664 5664
5642 5644 5646 5647 5649 5651 5653 5654 5656 5657 5658 5659 5660 5661 5661 5663 5663 5664 5664 5665 5665 5665 5665 5665 5665 5665 5666 5667 5669 5668 5666 5666 5667 5666 5663 5662 5661 5660 5659 5659 5659 5658 5657
5636 5637 5638 5639 5641 5642 5642 5644 5647 5648 5649 5650 5651 5653 5654 5655 5656 5657 5659 5659 5660 5660 5659 5660 5660 5660 5660 5661 5662 5663 5661 5660 5659 5660 5659 5657 5656 5655 5653 5652 5651 5651 5651
5630 5630 5631 5632 5632 5631 5631 5633 5637 5639 5640 5641 5642 5645 5648 5649 5649 5650 5651 5653 5655 5656 5656 5656 5657 5657 5658 5658 5659 5660 5658 5656 5652 5653 5653 5650 5649 5647 5645 5643 5642 5643 5643
5625 5625 5624 5624 5624 5622 5623 5625 5627 5632 5632 5633 5635 5637 5641 5643 5644 5646 5645 5645 5648 5649 5652 5656 5655 5655 5656 5656 5657 5657 5656 5654 5650 5648 5647 5642 5642 5639 5636 5633 5633 5634 5634
5621 5620 5618 5617 5616 5615 5616 5618 5621 5625 5626 5627 5628 5631 5633 5636 5638 5641 5644 5645 5646 5645 5648 5652 5654 5653 5653 5654 5655 5655 5652 5648 5646 5644 5644 5637 5635 5632 5630 5626 5624 5625 5625
5618 5616 5614 5612 5611 5610 5609 5611 5614 5618 5619 5620 5622 5624 5626 5630 5630 5634 5639 5639 5638 5637 5638 5641 5643 5643 5643 5645 5648 5649 5647 5645 5640 5638 5639 5635 5630 5627 5625 5621 5617 5617 5616
5616 5614 5610 5608 5606 5604 5603 5604 5606 5611 5612 5613 5615 5617 5617 5621 5623 5628 5634 5635 5634 5634 5635 5635 5637 5637 5639 5639 5640 5645 5645 5644 5640 5636 5635 5634 5630 5628 5620 5616 5614 5613 5610